Погода в Бхактапуре

Непал     27°40′28″N   85°25′46″E
темп.,
°C
ветер,
м/с
пор.,
м/с
влажн.,
%
обл.,
%
осадки,
мм/ч
давл.,
гПа
погр.,
м
7 мая, пт
пт723:45+14с01799 0.6 101412
02:45+14св017335 0.0 101412
05:45+15зсз1170100 0.1 101415
08:45+20в115539 0.1 1015424
11:45+24в2241100 0.2 10131724
14:45+16юз1184100 2.3 1014102
17:45+18юв117450 3.0 1011114
20:45+15сз228115 0.0 101416
8 мая, сб
сб823:45+16всв117284 0.6 101325
02:45+15с1176100 0.8 101216
05:45+15зюз0175100 0.8 101313
08:45+21юв115594 0.1 1013507
11:45+26ююз233893 0.3 10102387
14:45+21юз226098 0.9 1010271
17:45+21вюв115788 2.2 1009396
20:45+14зсз4591100 2.1 1014198
9 мая, вс
вс923:45+15ссз11801 2.2 101213
02:45+14вюв017035 0.0 101115
05:45+14в016954 0.0 101214
08:45+22ююв014718 0.1 1012693
11:45+22з334689 0.6 10111093
14:45+23ююв234458 0.3 10081349
17:45+20юз226381 0.4 100899
20:45+18ссз226942 0.1 101018
10 мая, пн
пн1023:45+16ссв116966 0.1 100914
02:45+15зсз017228 0.4 100913
05:45+15ссз01684 0.6 100912
08:45+23з014410 0.0 1009795
11:45+26з233492 0.1 10062623
14:45+18ююв2374100 2.0 1007234
17:45+17в238370 5.5 1006195
20:45+15всв129188 5.4 100889
11 мая, вт
вт1123:45+16всв118499 5.6 100826
02:45+16зсз017864 1.3 100714
05:45+15зсз117352 1.4 100814
08:45+22св115048 0.1 1009722
11:45+27ююз143559 0.1 10062326
14:45+22юв345692 1.8 1004826
17:45+15в2396100 22.1 1008185
20:45+15зсз1290100 14.1 1010152